DateTimeUTC,F1_A11,F1_S11,BsB_S11,BsG_S11,BsR_S11,BbsB_S11,BbsG_S11,BbsR_S11,BaB_A11,BaG_A11,BaR_A11,T_S11,U_S11,P_S11,T1_A11
2020-12-11T00:00:00Z,00000388,21000608,,,,,,,,,,23.8,00.0,0648.8,30.9
2020-12-11T00:01:00Z,00000388,21000608,,,,,,,,,,23.8,00.0,0648.8,30.9
2020-12-11T00:02:00Z,00000388,21000608,,,,,,,,,,23.8,00.0,0648.8,30.9
2020-12-11T00:03:00Z,00000388,61000608,,,,,,,,,,23.8,00.0,0648.8,30.9
2020-12-11T00:04:00Z,00000388,41000608,-000.93,0000.71,0000.21,0000.11,0000.32,-000.25,0000.22,-000.06,0000.02,23.6,00.0,0649.6,30.9
2020-12-11T00:05:00Z,00000388,01000608,-000.85,0000.10,0000.22,0000.86,-000.22,0000.12,-000.14,0000.11,0000.00,23.6,00.0,0649.7,30.9
2020-12-11T00:06:00Z,00000388,01000608,0000.45,0000.19,0000.28,0001.12,0000.19,-000.16,0000.14,-000.04,0000.00,23.5,00.0,0649.7,30.9
2020-12-11T00:07:00Z,00000388,01000608,-000.33,0000.08,-000.16,-000.03,0000.25,-000.36,0000.10,0000.13,0000.17,23.5,00.0,0649.7,30.9
2020-12-11T00:08:00Z,00000388,01000608,0000.77,0000.25,-000.03,0000.00,0000.33,-000.08,0000.01,0000.02,0000.01,23.5,00.0,0649.7,30.9
2020-12-11T00:09:00Z,00000388,01000608,0000.50,0000.31,-000.03,0001.30,0000.33,0000.23,0000.11,0000.03,0000.02,23.5,00.0,0649.7,30.9
2020-12-11T00:10:00Z,00000388,01000608,-000.61,0000.24,-000.03,0000.06,0000.23,-000.04,-000.08,0000.06,-000.06,23.6,00.0,0649.7,30.9
2020-12-11T00:11:00Z,00000388,01000608,0000.36,0000.39,0000.07,-000.59,-000.06,-000.19,0000.17,0000.07,0000.09,23.6,00.0,0649.7,30.9
2020-12-11T00:12:00Z,00000388,01000608,-000.00,0000.15,0000.01,0000.81,0000.14,0000.07,-000.04,-000.11,0000.06,23.6,00.0,0649.7,30.9
2020-12-11T00:13:00Z,00000388,01000608,-000.17,0000.52,-000.12,0000.03,-000.03,-000.03,0000.02,0000.12,0000.05,23.6,00.0,0649.6,30.9
2020-12-11T00:14:00Z,00000388,01000608,-000.06,0000.30,-000.01,-000.07,0000.14,0000.17,-000.02,0000.01,0000.03,23.6,00.0,0649.6,30.9
2020-12-11T00:15:00Z,00000388,01000608,-000.23,0000.10,0000.03,0000.61,0000.31,-000.05,0000.04,0000.05,-000.00,23.6,00.0,0649.7,30.9
2020-12-11T00:16:00Z,00000388,01000608,-000.22,0000.60,-000.12,0000.18,0000.19,-000.47,0000.11,0000.13,0000.00,23.5,00.0,0649.7,30.9
2020-12-11T00:17:00Z,00000388,01000608,0000.37,0000.48,-000.16,-000.64,0000.27,0000.03,0000.09,-000.14,0000.13,23.5,00.0,0649.7,30.9
2020-12-11T00:18:00Z,00000388,01000608,-000.11,0000.24,0000.19,0000.26,0000.27,-000.03,0000.04,0000.15,-000.03,23.5,00.0,0649.6,30.9
2020-12-11T00:19:00Z,00000388,01000608,0000.67,0000.47,0000.35,-000.45,0000.01,0000.43,0000.09,0000.05,-000.02,23.5,00.0,0649.6,30.9
2020-12-11T00:20:00Z,00000388,01000608,0001.13,0000.03,-000.12,-000.33,0000.66,-000.18,0000.10,0000.12,0000.08,23.5,00.0,0649.6,30.9
2020-12-11T00:21:00Z,00000388,01000608,-000.28,0000.21,0000.18,0000.15,0000.04,0000.21,0000.20,0000.02,0000.14,23.5,00.0,0649.6,30.9
2020-12-11T00:22:00Z,00000388,01000608,0000.18,0000.47,0000.05,0000.68,0000.14,0000.26,0000.14,0000.18,0000.14,23.5,00.0,0649.6,30.9
2020-12-11T00:23:00Z,00000388,01000608,0000.36,0000.76,-000.37,0000.23,0000.31,0000.19,0000.07,0000.20,0000.10,23.5,00.0,0649.7,30.9
2020-12-11T00:24:00Z,00000388,01000608,0000.68,0000.40,-000.54,0000.98,0000.48,-000.38,0000.24,0000.08,-000.01,23.5,00.0,0649.7,30.9
2020-12-11T00:25:00Z,00000388,01000608,-000.80,0000.68,0000.42,-000.24,0000.06,0000.15,0000.30,0000.16,0000.34,23.6,00.0,0649.7,30.9
2020-12-11T00:26:00Z,00000388,01000608,0000.76,0001.08,0000.27,0001.28,0000.22,-000.00,0002.14,0002.09,0001.48,23.6,00.0,0649.7,30.9
2020-12-11T00:27:00Z,00000388,01000608,0001.94,0001.44,0000.23,0000.41,0000.28,-000.17,0004.62,0004.46,0003.57,23.6,00.0,0649.7,30.9
2020-12-11T00:28:00Z,00000388,01000608,0000.04,0001.37,0000.13,0000.24,0000.17,0000.13,0000.97,0000.78,0000.62,23.6,00.0,0649.7,31.0
2020-12-11T00:29:00Z,00000388,01000608,-000.70,0000.60,0000.25,0001.14,0000.63,0000.06,0001.96,0001.66,0001.36,23.6,00.0,0649.7,30.9
2020-12-11T00:30:00Z,00000388,01000608,0000.76,0000.79,0000.20,0000.20,0000.24,0000.03,0001.81,0001.68,0001.45,23.6,00.0,0649.8,31.0
2020-12-11T00:31:00Z,00000388,01000608,0000.25,0001.37,0000.44,0000.91,0000.39,-000.06,0002.49,0002.24,0001.54,23.6,00.0,0649.8,30.9
2020-12-11T00:32:00Z,00000388,01000608,0001.29,0001.10,0000.48,0001.19,0000.64,0000.01,0002.01,0001.90,0001.63,23.6,00.0,0649.8,30.9
2020-12-11T00:33:00Z,00000388,01000608,0001.37,0001.36,0000.64,-000.00,0000.59,0000.20,0003.77,0003.70,0002.71,23.6,00.0,0649.7,30.9
2020-12-11T00:34:00Z,00000388,01000608,0001.07,0001.18,0000.23,0000.37,0000.28,-000.28,0002.43,0002.06,0001.78,23.6,00.0,0649.7,30.9
2020-12-11T00:35:00Z,00000388,01000608,0000.89,0001.47,0000.20,0000.99,0000.46,0000.35,0002.89,0002.61,0002.07,23.6,00.0,0649.7,30.9
2020-12-11T00:36:00Z,00000388,01000608,0002.31,0002.09,0001.59,0000.86,0000.47,0000.27,0006.45,0006.00,0004.73,23.6,00.0,0649.7,30.9
2020-12-11T00:37:00Z,00000388,01000608,0005.37,0004.01,0002.55,0001.83,0000.97,0000.19,0014.99,0013.91,0010.81,23.6,00.0,0649.7,30.9
2020-12-11T00:38:00Z,00000388,01000608,0003.91,0002.85,0001.92,0000.53,0000.41,0000.24,0011.10,0010.08,0008.21,23.6,00.0,0649.7,30.9
2020-12-11T00:39:00Z,00000388,01000608,0006.13,0004.55,0002.81,0001.75,0000.63,0000.85,0017.57,0016.16,0012.49,23.6,00.0,0649.7,30.9
2020-12-11T00:40:00Z,00000388,01000608,0003.10,0002.42,0000.91,0000.61,0000.71,0000.46,0008.55,0007.84,0006.32,23.6,00.0,0649.7,30.9
2020-12-11T00:41:00Z,00000388,01000608,0000.31,0000.54,0000.16,0000.47,0000.32,-000.37,0000.75,0000.72,0000.51,23.6,00.0,0649.7,30.9
2020-12-11T00:42:00Z,00000388,01000608,0000.00,0000.18,0000.14,-000.01,0000.57,0000.05,0000.42,0000.40,0000.32,23.6,00.0,0649.7,30.9
2020-12-11T00:43:00Z,00000388,01000608,0000.66,0000.74,-000.31,0000.44,0000.36,-000.47,0001.21,0001.07,0001.07,23.7,00.0,0649.7,30.9
2020-12-11T00:44:00Z,00000388,01000608,0000.00,0000.71,-000.30,0000.28,0000.29,0000.17,0000.29,0000.28,0000.07,23.7,00.0,0649.7,30.9
2020-12-11T00:45:00Z,00000388,01000608,0000.25,0000.52,-000.32,-000.22,0000.40,-000.22,0000.38,0000.31,0000.25,23.6,00.0,0649.7,30.9
2020-12-11T00:46:00Z,00000388,01000608,-000.33,0000.78,-000.24,0000.62,0000.10,-000.19,0000.18,0000.29,0000.32,23.6,00.0,0649.7,30.9
2020-12-11T00:47:00Z,00000388,01000608,0000.01,0000.63,-000.07,0000.83,0000.01,-000.30,0000.26,0000.03,0000.02,23.6,00.0,0649.7,30.9
2020-12-11T00:48:00Z,00000388,01000608,-001.16,0000.57,-000.42,0000.62,0000.34,-000.02,0000.15,0000.33,0000.12,23.6,00.0,0649.7,30.9
2020-12-11T00:49:00Z,00000388,01000608,-000.06,0000.84,0000.02,0000.50,0000.36,-000.30,0000.36,0000.20,0000.28,23.6,00.0,0649.7,30.9
2020-12-11T00:50:00Z,00000388,01000608,-000.01,0000.54,-000.11,-000.15,0000.24,0000.05,0000.26,0000.27,0000.11,23.6,00.0,0649.7,30.9
2020-12-11T00:51:00Z,00000388,01000608,0000.86,0000.87,-000.46,0000.82,-000.10,0000.14,0000.29,0000.37,0000.44,23.6,00.0,0649.7,30.9
2020-12-11T00:52:00Z,00000388,01000608,-000.57,0000.54,0000.18,0000.88,0000.79,-000.16,0000.40,0000.36,0000.20,23.6,00.0,0649.7,30.9
2020-12-11T00:53:00Z,00000388,01000608,0001.32,0000.19,-000.20,0000.91,0000.24,0000.24,0000.18,0000.28,0000.15,23.6,00.0,0649.7,30.9
2020-12-11T00:54:00Z,00000388,01000608,0000.21,0000.67,-000.00,0000.33,0000.15,-000.06,0000.39,0000.20,0000.10,23.6,00.0,0649.8,30.9
2020-12-11T00:55:00Z,00000388,01000608,-000.23,0000.47,0000.09,0000.85,0000.29,0000.06,0000.06,0000.10,0000.25,23.6,00.0,0649.8,30.9
2020-12-11T00:56:00Z,00000388,01000608,0001.05,0000.46,0000.10,-000.37,0000.39,0000.39,0000.22,0000.13,0000.04,23.7,00.0,0649.8,31.0
2020-12-11T00:57:00Z,00000388,41000608,,,,,,,,,,23.7,00.0,0649.9,31.0
2020-12-11T00:58:00Z,00000388,61000608,,,,,,,,,,23.8,00.0,0648.9,31.0
2020-12-11T00:59:00Z,00000388,21000608,,,,,,,,,,23.9,00.0,0648.8,31.0
2020-12-11T01:00:00Z,00000388,21000608,,,,,,,,,,23.9,00.0,0648.8,30.9
2020-12-11T01:01:00Z,00000388,21000608,,,,,,,,,,23.9,00.0,0648.9,31.0
2020-12-11T01:02:00Z,00000388,21000608,,,,,,,,,,23.9,00.0,0648.9,31.0
2020-12-11T01:03:00Z,00000388,61000608,,,,,,,,,,24.0,00.0,0648.9,30.9
2020-12-11T01:04:00Z,00000388,41000608,-000.26,0000.09,-000.04,-000.09,0000.35,0000.02,0000.15,0000.36,0000.16,23.8,00.0,0649.7,30.9
2020-12-11T01:05:00Z,00000388,01000608,0000.77,-000.11,0000.11,-000.20,-000.20,0000.19,0000.04,0000.05,0000.06,23.7,00.0,0649.8,30.9
2020-12-11T01:06:00Z,00000388,01000608,-000.19,0000.02,0000.26,0000.11,0000.43,-000.09,0000.23,0000.18,0000.27,23.7,00.0,0649.8,30.9
2020-12-11T01:07:00Z,00000388,01000608,-000.42,0000.38,-000.08,0000.21,-000.00,-000.14,0000.24,0000.24,0000.11,23.6,00.0,0649.8,30.9
2020-12-11T01:08:00Z,00000388,01000608,-000.39,0000.12,-000.32,0000.54,0000.15,-000.17,0000.32,0000.18,0000.23,23.6,00.0,0649.7,30.9
2020-12-11T01:09:00Z,00000388,01000608,0000.09,0000.04,-000.02,-000.01,0000.22,-000.14,0000.05,0000.15,0000.05,23.7,00.0,0649.7,30.9
2020-12-11T01:10:00Z,00000388,01000608,0000.13,-000.15,-000.45,0000.38,-000.35,0000.29,0000.06,0000.04,0000.02,23.7,00.0,0649.7,31.0
2020-12-11T01:11:00Z,00000388,01000608,-000.27,0000.06,-000.40,-000.30,0000.10,0000.20,0000.37,0000.25,0000.30,23.7,00.0,0649.7,30.9
2020-12-11T01:12:00Z,00000388,01000608,-000.65,-000.57,0000.01,0001.21,0000.06,-000.02,0000.15,-000.01,-000.06,23.7,00.0,0649.7,30.9
2020-12-11T01:13:00Z,00000388,01000608,0001.36,-000.01,-000.01,0000.35,0000.13,-000.02,0000.00,0000.09,0000.05,23.7,00.0,0649.7,31.0
2020-12-11T01:14:00Z,00000388,01000608,-000.83,0000.01,-000.08,0000.14,-000.23,0000.86,0000.04,0000.22,0000.21,23.7,00.0,0649.8,30.9
2020-12-11T01:15:00Z,00000388,01000608,-000.37,-000.18,-000.60,0000.45,0000.04,-000.36,0000.25,0000.10,0000.04,23.7,00.0,0649.8,30.9
2020-12-11T01:16:00Z,00000388,01000608,-000.60,-000.55,-000.03,0000.75,0000.01,0000.04,0000.01,-000.04,0000.04,23.7,00.0,0649.8,30.9
2020-12-11T01:17:00Z,00000388,01000608,-000.20,-000.07,-000.50,0000.83,0000.00,0000.22,0000.18,0000.24,0000.08,23.7,00.0,0649.8,30.9
2020-12-11T01:18:00Z,00000388,01000608,-000.48,-000.67,-000.16,0000.73,-000.01,-000.75,0000.02,0000.08,0000.14,23.6,00.0,0649.8,30.9
2020-12-11T01:19:00Z,00000388,01000608,0000.08,-000.26,0000.20,0000.03,0000.04,-000.17,0000.10,0000.08,0000.06,23.6,00.0,0649.8,30.9
2020-12-11T01:20:00Z,00000388,01000608,-000.28,0000.37,-000.14,0000.32,-000.13,0000.19,-000.04,0000.00,-000.13,23.6,00.0,0649.8,30.9
2020-12-11T01:21:00Z,00000388,01000608,-000.66,0000.09,-000.22,0000.31,-000.23,0000.36,0000.26,0000.00,0000.23,23.6,00.0,0649.8,30.9
2020-12-11T01:22:00Z,00000388,01000608,0000.06,0000.20,0000.07,-000.22,0000.10,0000.30,0000.16,0000.26,0000.11,23.6,00.0,0649.8,30.9
2020-12-11T01:23:00Z,00000388,01000608,-000.23,0000.22,-000.12,-000.93,0000.09,-000.16,0000.17,0000.16,0000.08,23.6,00.0,0649.8,30.9
2020-12-11T01:24:00Z,00000388,01000608,0000.34,-000.20,0000.02,0000.19,0000.32,-000.01,-000.08,-000.08,-000.05,23.6,00.0,0649.8,30.9
2020-12-11T01:25:00Z,00000388,01000608,-000.84,0000.02,-000.55,0000.12,0000.40,-000.67,0000.08,0000.02,0000.15,23.7,00.0,0649.8,30.9
2020-12-11T01:26:00Z,00000388,01000608,-000.32,0000.14,0000.12,0000.21,0000.10,-000.16,-000.02,0000.08,-000.09,23.7,00.0,0649.8,30.9
2020-12-11T01:27:00Z,00000388,01000608,-000.13,-000.25,-000.43,0000.10,-000.25,-000.29,0000.04,-000.04,0000.05,23.7,00.0,0649.8,30.9
2020-12-11T01:28:00Z,00000388,01000608,-000.38,-000.13,-000.37,0000.40,0000.38,0000.05,0000.11,0000.02,0000.06,23.7,00.0,0649.9,30.9
2020-12-11T01:29:00Z,00000388,01000608,-000.59,-000.09,-000.13,0000.53,0000.10,0000.24,-000.03,0000.13,-000.01,23.7,00.0,0649.8,30.9
2020-12-11T01:30:00Z,00000388,01000608,0000.09,0000.40,-000.46,0000.27,0000.35,-000.22,0000.03,0000.04,0000.07,23.6,00.0,0649.9,30.9
2020-12-11T01:31:00Z,00000388,01000608,-000.28,-000.46,-000.17,-000.22,-000.11,0000.00,0000.07,0000.16,-000.01,23.6,00.0,0649.9,30.9
2020-12-11T01:32:00Z,00000388,01000608,0000.49,0000.25,-000.14,-000.03,-000.00,0000.23,0000.19,-000.04,0000.02,23.6,00.0,0649.9,30.9
2020-12-11T01:33:00Z,00000388,01000608,-000.31,-000.22,-000.24,0000.07,0000.40,-000.22,0000.14,0000.10,0000.11,23.6,00.0,0649.9,30.9
2020-12-11T01:34:00Z,00000388,01000608,-000.62,-000.09,-000.22,0000.33,-000.07,-000.39,-000.04,-000.03,0000.05,23.6,00.0,0649.9,30.9
2020-12-11T01:35:00Z,00000388,01000608,0000.24,0000.34,0000.12,0000.69,0000.14,0000.28,0000.06,0000.22,0000.03,23.6,00.0,0649.9,30.9
2020-12-11T01:36:00Z,00000388,01000608,0000.38,-000.64,-000.29,0000.70,0000.10,-000.30,0000.05,0000.01,0000.12,23.6,00.0,0649.9,30.9
2020-12-11T01:37:00Z,00000388,01000608,0000.22,-000.21,-000.06,0000.61,-000.12,0000.11,0000.18,0000.03,0000.07,23.6,00.0,0649.9,30.9
2020-12-11T01:38:00Z,00000388,01000608,-000.27,0000.00,0000.44,-000.09,0000.04,0000.03,-000.01,0000.12,0000.07,23.6,00.0,0649.9,30.9
2020-12-11T01:39:00Z,00000388,01000608,-000.19,-000.61,-000.32,0000.46,0000.02,-000.07,0000.16,0000.24,0000.10,23.6,00.0,0649.9,30.9
2020-12-11T01:40:00Z,00000388,01000608,-000.72,0000.18,-000.14,-000.78,0000.12,0000.03,0000.01,-000.23,-000.11,23.7,00.0,0649.9,31.0
2020-12-11T01:41:00Z,00000388,01000608,-001.12,-000.38,-000.28,-000.33,0000.34,0000.25,-000.08,0000.19,0000.19,23.7,00.0,0649.9,31.0
2020-12-11T01:42:00Z,00000388,01000608,0000.16,-000.60,-000.12,0000.54,0000.05,0000.27,-000.05,-000.26,-000.13,23.7,00.0,0649.9,31.0
2020-12-11T01:43:00Z,00000388,01000608,-000.13,-000.11,0000.22,0000.11,-000.12,0000.21,-000.02,0000.11,-000.01,23.7,00.0,0649.9,31.0
2020-12-11T01:44:00Z,00000388,01000608,-000.73,-000.28,-000.01,0000.10,-000.21,0000.51,0000.04,0000.00,0000.08,23.7,00.0,0649.9,31.0
2020-12-11T01:45:00Z,00000388,01000608,-000.42,-000.22,-000.57,0000.21,-000.04,-000.22,0000.09,0000.16,0000.00,23.7,00.0,0649.9,30.9
2020-12-11T01:46:00Z,00000388,01000608,-000.85,-000.07,0000.04,0000.56,0000.02,0000.35,0000.10,-000.07,0000.03,23.7,00.0,0650.0,30.9
2020-12-11T01:47:00Z,00000388,01000608,0000.21,-000.35,0000.49,-000.04,0000.03,0000.24,0000.02,0000.11,0000.01,23.7,00.0,0650.0,30.9
2020-12-11T01:48:00Z,00000388,01000608,-001.26,0000.01,-000.19,0000.10,-000.17,0000.02,0000.07,-000.02,0000.12,23.7,00.0,0650.0,30.9
2020-12-11T01:49:00Z,00000388,01000608,-000.48,0000.03,0000.25,-000.23,0000.28,-000.08,-000.00,0000.01,-000.02,23.6,00.0,0650.0,30.9
2020-12-11T01:50:00Z,00000388,01000608,0000.34,0000.15,0000.01,0000.23,0000.21,0000.12,0000.09,0000.05,-000.07,23.6,00.0,0650.0,30.9
2020-12-11T01:51:00Z,00000388,01000608,-000.47,-000.23,0000.41,0000.38,0000.34,0000.07,0000.03,0000.16,0000.16,23.6,00.0,0650.0,30.9
2020-12-11T01:52:00Z,00000388,01000608,0000.43,0000.38,-000.51,0000.24,-000.18,-000.12,0000.12,-000.04,-000.09,23.6,00.0,0650.1,30.9
2020-12-11T01:53:00Z,00000388,01000608,0000.55,0000.24,-000.01,-000.07,-000.15,-000.25,0000.00,0000.03,0000.01,23.6,00.0,0650.1,30.9
2020-12-11T01:54:00Z,00000388,01000608,-000.01,0000.33,0000.14,0000.51,0000.14,0000.16,0000.03,-000.00,0000.02,23.6,00.0,0650.1,30.9
2020-12-11T01:55:00Z,00000388,01000608,-000.19,-000.23,0000.08,0000.14,0000.01,0000.13,-000.14,-000.17,-000.04,23.7,00.0,0650.1,30.9
2020-12-11T01:56:00Z,00000388,01000608,-000.22,-000.12,0000.06,0000.32,0000.37,-000.19,0000.11,0000.20,0000.16,23.6,00.0,0650.1,30.9
2020-12-11T01:57:00Z,00000388,41000608,,,,,,,,,,23.7,00.0,0650.0,30.9
2020-12-11T01:58:00Z,00000388,61000608,,,,,,,,,,23.8,00.0,0649.2,30.9
2020-12-11T01:59:00Z,00000388,21000608,,,,,,,,,,23.9,00.0,0649.2,30.9
2020-12-11T02:00:00Z,00000388,21000608,,,,,,,,,,23.9,00.0,0649.2,30.9
2020-12-11T02:01:00Z,00000388,21000608,,,,,,,,,,23.9,00.0,0649.2,30.9
2020-12-11T02:02:00Z,00000388,21000608,,,,,,,,,,23.9,00.0,0649.2,30.9
2020-12-11T02:03:00Z,00000388,61000608,,,,,,,,,,23.9,00.0,0649.2,30.9
2020-12-11T02:04:00Z,00000388,41000608,0000.27,0000.23,0000.91,0000.69,0000.01,0000.17,0000.07,0000.00,0000.11,23.7,00.0,0650.1,30.9
2020-12-11T02:05:00Z,00000388,01000608,0000.67,-000.09,0000.28,-000.40,-000.13,0000.42,0000.04,-000.08,-000.15,23.7,00.0,0650.2,30.9
2020-12-11T02:06:00Z,00000388,01000608,0000.44,-000.56,0000.16,0000.22,0000.02,0000.14,-000.03,0000.13,0000.07,23.7,00.0,0650.2,30.9
2020-12-11T02:07:00Z,00000388,01000608,0001.00,0000.56,0000.01,0000.07,0000.23,0000.08,0000.14,-000.08,0000.02,23.7,00.0,0650.2,30.9
2020-12-11T02:08:00Z,00000388,01000608,0000.18,-000.29,0000.03,0000.19,0000.32,-000.26,-000.00,0000.13,0000.07,23.6,00.0,0650.2,30.9
2020-12-11T02:09:00Z,00000388,01000608,-000.36,0000.07,-000.25,0000.39,0000.20,-000.05,-000.10,-000.02,-000.01,23.6,00.0,0650.2,30.9
2020-12-11T02:10:00Z,00000388,01000608,0001.37,-000.19,-000.07,0000.29,0000.61,0000.41,-000.03,-000.06,-000.03,23.7,00.0,0650.3,30.9
2020-12-11T02:11:00Z,00000388,01000608,0000.53,0000.27,0000.14,0000.21,0000.10,0000.32,0000.07,0000.01,0000.03,23.7,00.0,0650.3,30.9
2020-12-11T02:12:00Z,00000388,01000608,-000.18,0000.35,0000.57,-000.06,0000.23,-000.25,-000.11,-000.08,0000.01,23.7,00.0,0650.3,30.9
2020-12-11T02:13:00Z,00000388,01000608,0000.65,-000.07,-000.06,0000.85,0000.10,0000.02,-000.03,-000.04,-000.13,23.7,00.0,0650.3,30.9
2020-12-11T02:14:00Z,00000388,01000608,0000.41,0000.02,0000.04,-000.30,0000.24,0000.17,0000.02,0000.20,0000.06,23.7,00.0,0650.3,30.9
2020-12-11T02:15:00Z,00000388,01000608,0000.54,0000.11,0000.55,0000.32,0000.15,0000.58,0000.16,-000.01,-000.04,23.7,00.0,0650.3,30.9
2020-12-11T02:16:00Z,00000388,01000608,0002.00,-000.34,-000.21,0000.00,0000.01,-000.10,-000.12,0000.01,0000.10,23.7,00.0,0650.3,30.9
2020-12-11T02:17:00Z,00000388,01000608,0000.38,-000.30,0000.10,0000.13,-000.15,0000.36,0000.01,-000.12,-000.07,23.7,00.0,0650.3,31.0
2020-12-11T02:18:00Z,00000388,01000608,0000.41,-000.01,0000.24,0000.44,-000.18,0000.47,0000.01,0000.01,0000.08,23.6,00.0,0650.3,30.9
2020-12-11T02:19:00Z,00000388,01000608,0000.60,0000.04,0000.57,0000.16,0000.32,0000.07,-000.07,0000.09,0000.09,23.6,00.0,0650.3,30.9
2020-12-11T02:20:00Z,00000388,01000608,0001.16,0000.14,0000.53,-000.15,0000.15,0000.04,0000.12,0000.02,-000.18,23.6,00.0,0650.4,30.9
2020-12-11T02:21:00Z,00000388,01000608,0000.25,0000.11,0000.41,0001.17,0000.23,0000.28,-000.16,-000.06,0000.05,23.6,00.0,0650.4,30.9
2020-12-11T02:22:00Z,00000388,01000608,0000.21,0000.12,0000.07,-000.74,-000.17,-000.01,0000.11,0000.10,0000.09,23.6,00.0,0650.4,30.9
2020-12-11T02:23:00Z,00000388,01000608,0001.00,0000.73,-000.07,-000.33,0000.08,0000.12,0000.09,0000.04,-000.04,23.6,00.0,0650.4,30.9
2020-12-11T02:24:00Z,00000388,01000608,-000.92,-000.27,0000.14,0000.18,0000.27,0000.20,-000.06,0000.02,0000.11,23.6,00.0,0650.4,30.9
2020-12-11T02:25:00Z,00000388,01000608,-000.07,0000.25,0000.23,0000.16,0000.40,0000.66,0000.00,-000.03,0000.04,23.7,00.0,0650.5,31.0
2020-12-11T02:26:00Z,00000388,01000608,0001.02,-000.22,0000.31,0000.41,0000.09,0000.16,0000.19,0000.17,0000.05,23.7,00.0,0650.5,30.9
2020-12-11T02:27:00Z,00000388,01000608,0001.34,-000.14,0000.50,0001.38,0000.19,0000.07,-000.09,-000.13,-000.12,23.7,00.0,0650.5,30.9
2020-12-11T02:28:00Z,00000388,01000608,0000.81,-000.64,0000.11,-000.16,0000.64,-000.20,-000.07,-000.01,0000.12,23.7,00.0,0650.5,31.0
2020-12-11T02:29:00Z,00000388,01000608,-000.09,0000.54,0000.20,-000.62,-000.23,0000.45,0000.10,0000.05,-000.09,23.7,00.0,0650.5,30.9
2020-12-11T02:30:00Z,00000388,01000608,0000.62,-000.09,-000.03,-000.33,0000.13,0000.29,-000.23,-000.08,-000.11,23.7,00.0,0650.6,30.9
2020-12-11T02:31:00Z,00000388,01000608,0000.38,0000.25,-000.19,0000.40,-000.09,-000.21,0000.21,-000.05,0000.15,23.7,00.0,0650.6,30.9
2020-12-11T02:32:00Z,00000388,01000608,0000.93,0000.12,-000.00,-000.13,0000.15,-000.07,-000.21,0000.04,0000.02,23.7,00.0,0650.6,30.9
2020-12-11T02:33:00Z,00000388,01000608,0000.59,0000.09,0000.24,-000.17,0000.46,-000.13,0000.21,0000.14,-000.03,23.7,00.0,0650.6,30.9
2020-12-11T02:34:00Z,00000388,01000608,0000.20,0000.18,0000.08,-000.77,0000.28,-000.15,-000.10,-000.07,-000.07,23.7,00.0,0650.6,30.9
2020-12-11T02:35:00Z,00000388,01000608,0000.48,-000.11,0000.04,0000.45,0000.23,-000.19,-000.00,-000.15,0000.01,23.7,00.0,0650.6,30.9
2020-12-11T02:36:00Z,00000388,01000608,-000.25,0000.08,0000.40,-000.52,0000.18,0000.42,-000.05,0000.10,0000.07,23.7,00.0,0650.6,30.9
2020-12-11T02:37:00Z,00000388,01000608,0000.40,-000.14,0000.04,-000.40,0000.22,0000.22,0000.17,0000.12,0000.07,23.7,00.0,0650.6,30.9
2020-12-11T02:38:00Z,00000388,01000608,0000.40,0000.12,-000.16,0000.22,0000.15,-000.28,0000.10,-000.05,-000.08,23.6,00.0,0650.6,30.9
2020-12-11T02:39:00Z,00000388,01000608,0000.27,0000.01,0000.23,0000.08,0000.22,0000.06,-000.15,0000.06,-000.04,23.7,00.0,0650.6,30.9
2020-12-11T02:40:00Z,00000388,01000608,0000.13,0000.43,0000.01,-000.37,0000.61,-000.04,0000.01,-000.06,-000.02,23.7,00.0,0650.6,30.9
2020-12-11T02:41:00Z,00000388,01000608,0000.20,-000.23,0000.12,0000.52,-000.14,0000.45,0000.11,0000.13,0000.19,23.7,00.0,0650.6,30.9
2020-12-11T02:42:00Z,00000388,01000608,0000.76,0000.21,-000.10,-000.36,0000.07,0000.32,-000.06,-000.11,-000.06,23.7,00.0,0650.6,30.9
2020-12-11T02:43:00Z,00000388,01000608,0001.00,-000.36,0000.41,-000.21,-000.11,0000.10,-000.12,-000.12,0000.09,23.7,00.0,0650.6,31.0
2020-12-11T02:44:00Z,00000388,01000608,-000.25,-000.21,0000.56,0000.45,-000.02,-000.07,0000.47,0000.47,0000.05,23.7,00.0,0650.6,30.9
2020-12-11T02:45:00Z,00000388,01000608,0004.47,0002.93,0001.35,-000.16,0000.84,0000.29,0011.84,0010.73,0008.72,23.7,00.0,0650.6,30.9
2020-12-11T02:46:00Z,00000388,01000608,0001.38,0000.27,0000.76,0000.28,0000.24,0000.05,0002.01,0001.94,0001.54,23.7,00.0,0650.6,30.9
2020-12-11T02:47:00Z,00000388,01000608,0000.63,0000.29,0000.32,-000.37,0000.23,-000.09,0000.01,0000.25,0000.01,23.7,00.0,0650.6,30.9
2020-12-11T02:48:00Z,00000388,01000608,0000.81,0000.11,0000.18,0000.19,0000.32,0000.14,0000.04,0000.01,-000.02,23.7,00.0,0650.6,30.9
2020-12-11T02:49:00Z,00000388,01000608,-000.13,-000.27,0000.04,-000.03,-000.01,-000.26,0000.10,-000.02,0000.14,23.7,00.0,0650.7,30.9
2020-12-11T02:50:00Z,00000388,01000608,0000.00,-000.11,0000.52,-000.11,0000.18,0000.43,0000.12,0000.33,0000.07,23.7,00.0,0650.7,30.9
2020-12-11T02:51:00Z,00000388,01000608,0000.31,-000.14,-000.39,0000.44,0000.20,-000.01,0000.42,0000.13,0000.24,23.7,00.0,0650.7,30.9
2020-12-11T02:52:00Z,00000388,01000608,-000.25,-000.08,0000.27,-000.45,0000.30,0000.33,0000.05,0000.09,0000.13,23.7,00.0,0650.7,30.9
2020-12-11T02:53:00Z,00000388,01000608,0000.84,-000.09,0000.26,-000.31,0000.32,-000.13,0000.03,0000.13,0000.10,23.7,00.0,0650.7,31.0
2020-12-11T02:54:00Z,00000388,01000608,-000.16,0000.04,-000.08,-000.12,0000.42,0000.13,0000.08,0000.01,-000.03,23.7,00.0,0650.7,31.0
2020-12-11T02:55:00Z,00000388,01000608,0000.67,0000.15,-000.15,-000.21,0000.06,-000.21,-000.11,-000.01,0000.01,23.7,00.0,0650.7,30.9
2020-12-11T02:56:00Z,00000388,01000608,0000.77,-000.28,0000.00,-000.53,0000.14,0000.35,0000.10,0000.07,-000.04,23.7,00.0,0650.7,31.0
2020-12-11T02:57:00Z,00000388,41000608,,,,,,,,,,23.8,00.0,0650.7,31.0
2020-12-11T02:58:00Z,00000388,61000608,,,,,,,,,,23.9,00.0,0649.8,31.0
2020-12-11T02:59:00Z,00000388,21000608,,,,,,,,,,24.0,00.0,0649.8,31.0
2020-12-11T03:00:00Z,00000388,21000608,,,,,,,,,,24.0,00.0,0649.8,31.0
2020-12-11T03:01:00Z,00000388,21000608,,,,,,,,,,24.0,00.0,0649.8,30.9
2020-12-11T03:02:00Z,00000388,21000608,,,,,,,,,,24.0,00.0,0649.8,30.9
2020-12-11T03:03:00Z,00000388,61000608,,,,,,,,,,24.0,00.0,0649.8,30.9
2020-12-11T03:04:00Z,00000388,41000608,-000.95,-000.35,0000.20,-000.48,-000.02,0000.17,0000.48,0000.39,0000.23,23.8,00.0,0650.7,30.9
2020-12-11T03:05:00Z,00000388,01000608,0000.75,-000.10,0000.41,0000.25,-000.07,0000.20,0001.15,0001.11,0000.80,23.8,00.0,0650.8,30.9
2020-12-11T03:06:00Z,00000388,01000608,-000.52,0000.18,0000.08,0000.35,0000.16,0000.66,0000.28,0000.17,0000.28,23.7,00.0,0650.8,30.9
2020-12-11T03:07:00Z,00000388,01000608,-000.03,0000.22,-000.04,-000.93,0000.02,0000.34,0000.84,0000.95,0000.51,23.7,00.0,0650.8,30.9
2020-12-11T03:08:00Z,00000388,01000608,0000.28,0000.62,0000.72,-000.25,0000.31,0000.24,0003.27,0002.88,0002.42,23.7,00.0,0650.8,30.9
2020-12-11T03:09:00Z,00000388,01000608,0001.42,0001.46,0000.24,-000.27,0000.45,0000.34,0004.14,0003.78,0002.91,23.7,00.0,0650.8,30.9
2020-12-11T03:10:00Z,00000388,01000608,0001.06,0000.94,0001.01,-000.42,0000.24,0000.54,0004.31,0004.06,0003.18,23.8,00.0,0650.8,31.0